Retour au catalogue

STARLINK-34284

ActifCommunicationsVLEO
NORAD 64212·PAYLOAD·🇺🇸 United States

Lancé May 31, 2025 depuis Vandenberg Space Force Base

Loading…

Prochains Passages (prochaines 24 heures)

TLE

FraisSource: CelesTrak SupGP

Époque: Sep 14, 2026, 21:20 UTC

1 64212C 25117K   26257.88937500  .00043227  00000+0  12781-2 0  2578
2 64212  53.1567 239.5983 0001348 110.2275 111.7290 15.34344358    19

Suivez STARLINK-34284 en temps réel avec AllMySat

Download on the App Store